EW3591 Weather Reports


time (UTC)temp
F
wind
direction
speed
knots
gust
knots
rain 1hr
in
rain 24hr
in
rain mn
in
humidity
%
barometer
mb
20260507221526 49 37 0.0 2.6 0.01 0.02 0.02 76 1010.1
20260507221325 49 43 0.0 2.6 0.01 0.02 0.02 76 1010.1
20260507221125 49 30 0.9 2.6 0.01 0.02 0.02 76 1010.0
20260507220925 49 306 0.0 2.6 0.01 0.02 0.02 76 1010.0
20260507220724 49 287 0.0 0.9 0.02 0.02 0.02 75 1010.0
20260507220524 49 281 0.0 0.9 0.02 0.02 0.02 76 1010.0
20260507220324 49 281 0.0 0.9 0.02 0.02 0.02 75 1010.0
20260507220123 49 281 0.0 0.9 0.02 0.02 0.02 76 1010.0
20260507215923 49 281 0.0 0.9 0.02 0.02 0.02 75 1010.0
20260507215723 49 281 0.0 0.9 0.02 0.02 0.02 75 1010.1
20260507215523 49 281 0.0 0.9 0.02 0.02 0.02 75 1010.1
20260507215322 48 281 0.0 1.7 0.02 0.02 0.02 74 1010.0
20260507215122 48 281 0.0 2.6 0.02 0.02 0.02 75 1010.0
20260507214922 48 211 0.0 2.6 0.02 0.02 0.02 76 1010.0
20260507214721 48 298 0.0 2.6 0.02 0.02 0.02 76 1009.9
20260507214521 48 302 0.0 2.6 0.02 0.02 0.02 76 1010.0
20260507214321 48 241 0.0 2.6 0.02 0.02 0.02 77 1010.0
20260507214120 48 218 0.0 3.5 0.02 0.02 0.02 76 1010.0
20260507213920 48 218 0.0 4.3 0.02 0.02 0.02 77 1010.0
20260507213720 48 240 0.0 4.3 0.02 0.02 0.02 78 1010.0
20260507213520 48 147 0.9 5.2 0.02 0.02 0.02 78 1010.0
20260507213319 48 135 1.7 5.2 0.02 0.02 0.02 78 1010.0
20260507213119 48 73 0.9 6.1 0.02 0.02 0.02 77 1010.1
20260507212919 48 49 1.7 6.1 0.02 0.02 0.02 76 1010.0
20260507212718 48 102 0.9 7.0 0.02 0.02 0.02 76 1010.0
20260507212519 48 92 1.7 7.0 0.02 0.02 0.02 75 1010.1
20260507212318 48 133 1.7 7.0 0.02 0.02 0.02 75 1010.0
20260507212117 49 179 2.6 7.0 0.01 0.01 0.01 73 1010.1
20260507211917 49 173 1.7 5.2 0.01 0.01 0.01 73 1010.0
20260507211717 49 158 0.9 5.2 0.01 0.01 0.01 73 1009.9
20260507211517 49 175 1.7 5.2 0.01 0.01 0.01 70 1009.9
20260507211316 50 263 0.9 5.2 0.01 0.01 0.01 69 1009.9
20260507211116 50 81 0.9 6.1 0.01 0.01 0.01 69 1009.9
20260507210916 50 115 1.7 6.1 0.00 0.00 0.00 66 1009.9
20260507210715 50 98 0.9 7.0 0.00 0.00 0.00 64 1010.0
20260507210515 51 144 1.7 7.0 0.00 0.00 0.00 63 1009.9
20260507210315 51 98 1.7 7.0 0.00 0.00 0.00 61 1009.9
20260507210114 51 149 2.6 7.0 0.00 0.00 0.00 60 1009.8
20260507205914 52 102 2.6 7.0 0.00 0.00 0.00 58 1009.8
20260507205714 52 138 2.6 7.0 0.00 0.00 0.00 57 1009.7
20260507205514 53 142 1.7 7.0 0.00 0.00 0.00 57 1009.7
20260507205313 53 84 0.9 7.0 0.00 0.00 0.00 56 1009.7
20260507205113 53 130 0.9 6.1 0.00 0.00 0.00 55 1009.6
20260507204913 53 48 1.7 6.1 0.00 0.00 0.00 55 1009.5
20260507204712 53 106 0.9 4.3 0.00 0.00 0.00 55 1009.5
20260507204512 53 115 0.9 4.3 0.00 0.00 0.00 55 1009.4
20260507204312 53 135 0.0 4.3 0.00 0.00 0.00 54 1009.4
20260507204111 54 209 0.9 4.3 0.00 0.00 0.00 54 1009.4
20260507203911 54 179 0.9 3.5 0.00 0.00 0.00 54 1009.4
20260507203711 54 158 0.9 3.5 0.00 0.00 0.00 54 1009.4
20260507203511 54 147 0.0 4.3 0.00 0.00 0.00 54 1009.4
20260507203310 54 143 0.0 4.3 0.00 0.00 0.00 54 1009.4
20260507203110 54 53 0.0 4.3 0.00 0.00 0.00 54 1009.4
20260507202910 54 25 1.7 5.2 0.00 0.00 0.00 54 1009.5
20260507202709 55 10 1.7 5.2 0.00 0.00 0.00 54 1009.4
20260507202509 55 3 1.7 5.2 0.00 0.00 0.00 54 1009.4
20260507202309 55 94 1.7 5.2 0.00 0.00 0.00 54 1009.5
20260507202108 55 105 1.7 5.2 0.00 0.00 0.00 54 1009.5
20260507201908 55 101 0.9 2.6 0.00 0.00 0.00 54 1009.6
20260507201708 55 267 0.0 2.6 0.00 0.00 0.00 56 1009.4
20260507201508 54 228 0.0 2.6 0.00 0.00 0.00 56 1009.5
20260507201307 54 231 0.0 2.6 0.00 0.00 0.00 56 1009.5
20260507201107 54 139 0.9 2.6 0.00 0.00 0.00 56 1009.5
20260507200907 54 137 0.9 2.6 0.00 0.00 0.00 56 1009.6
20260507200706 54 211 0.9 5.2 0.00 0.00 0.00 56 1009.7
20260507200506 54 251 0.9 5.2 0.00 0.00 0.00 56 1009.7
20260507200306 54 0 0.0 5.2 0.00 0.00 0.00 57 1009.7
20260507200105 54 240 1.7 5.2 0.00 0.00 0.00 56 1009.7
20260507195905 54 248 1.7 5.2 0.00 0.00 0.00 57 1009.7
20260507195705 54 207 1.7 5.2 0.00 0.00 0.00 56 1009.8
20260507195504 54 178 1.7 7.8 0.00 0.00 0.00 57 1009.8
20260507195306 54 210 0.9 7.8 0.00 0.00 0.00 57 1009.8
20260507195104 53 173 0.9 7.8 0.00 0.00 0.00 58 1009.9
20260507194904 53 129 2.6 7.8 0.00 0.00 0.00 57 1010.0
20260507194703 53 133 3.5 7.8 0.00 0.00 0.00 59 1010.0
20260507194503 52 202 2.6 6.1 0.00 0.00 0.00 60 1009.9
20260507194303 52 238 1.7 7.8 0.00 0.00 0.00 62 1010.0
20260507194102 51 247 1.7 7.8 0.00 0.00 0.00 67 1010.0
20260507193902 50 229 2.6 8.7 0.00 0.00 0.00 66 1010.1
20260507193702 50 229 3.5 10.4 0.00 0.00 0.00 65 1010.1
20260507193501 50 223 3.5 11.3 0.00 0.00 0.00 64 1010.2
20260507193301 51 208 3.5 11.3 0.00 0.00 0.00 64 1010.2
20260507193101 51 164 3.5 11.3 0.00 0.00 0.00 63 1010.3
20260507192901 51 234 4.3 11.3 0.00 0.00 0.00 63 1010.2
20260507192700 52 233 4.3 11.3 0.00 0.00 0.00 60 1010.3
20260507192500 52 105 4.3 11.3 0.00 0.00 0.00 59 1010.4
20260507192300 53 185 4.3 11.3 0.00 0.00 0.00 58 1010.3
20260507192059 53 105 1.7 7.8 0.00 0.00 0.00 57 1010.3
20260507191859 53 224 1.7 6.1 0.00 0.00 0.00 57 1010.3
20260507191659 53 146 1.7 6.1 0.00 0.00 0.00 56 1010.3
20260507191458 53 86 2.6 6.1 0.00 0.00 0.00 56 1010.3
20260507191258 54 300 1.7 10.4 0.00 0.00 0.00 55 1010.3
20260507191058 54 308 0.9 10.4 0.00 0.00 0.00 56 1010.2
20260507190858 54 315 1.7 10.4 0.00 0.00 0.00 56 1010.3
20260507190657 54 62 1.7 10.4 0.00 0.00 0.00 56 1010.3
20260507190457 54 45 3.5 10.4 0.00 0.00 0.00 55 1010.3
20260507190257 54 59 3.5 8.7 0.00 0.00 0.00 54 1010.3
20260507190056 54 106 2.6 11.3 0.00 0.00 0.00 55 1010.4
20260507185856 54 139 0.9 11.3 0.00 0.00 0.00 56 1010.3
20260507185656 54 149 0.9 11.3 0.00 0.00 0.00 56 1010.2
20260507185455 54 206 1.7 11.3 0.00 0.00 0.00 56 1010.3
20260507185255 54 203 3.5 11.3 0.00 0.00 0.00 55 1010.3
20260507185055 54 239 2.6 11.3 0.00 0.00 0.00 55 1010.3
20260507184855 54 204 1.7 10.4 0.00 0.00 0.00 55 1010.3
20260507184654 54 201 2.6 10.4 0.00 0.00 0.00 56 1010.3
20260507184454 54 172 3.5 10.4 0.00 0.00 0.00 56 1010.3
20260507184254 54 179 3.5 10.4 0.00 0.00 0.00 56 1010.3
20260507184053 54 167 4.3 10.4 0.00 0.00 0.00 56 1010.3
20260507183853 54 77 1.7 9.6 0.00 0.00 0.00 57 1010.3
20260507183653 54 172 1.7 9.6 0.00 0.00 0.00 58 1010.4
20260507183452 53 197 2.6 9.6 0.00 0.00 0.00 59 1010.4
20260507183252 53 195 3.5 9.6 0.00 0.00 0.00 59 1010.4
20260507183052 53 197 3.5 8.7 0.00 0.00 0.00 58 1010.3
20260507182852 53 193 3.5 8.7 0.00 0.00 0.00 58 1010.4
20260507182651 53 192 3.5 8.7 0.00 0.00 0.00 58 1010.4
20260507182451 53 184 4.3 8.7 0.00 0.00 0.00 58 1010.4
20260507182251 53 203 3.5 7.8 0.00 0.00 0.00 58 1010.4
20260507182050 52 201 2.6 7.8 0.00 0.00 0.00 59 1010.5
20260507181850 52 177 1.7 6.1 0.00 0.00 0.00 59 1010.4
20260507181650 52 225 1.7 6.1 0.00 0.00 0.00 58 1010.4
20260507181449 52 186 1.7 9.6 0.00 0.00 0.00 59 1010.5
20260507181249 52 233 0.9 9.6 0.00 0.00 0.00 60 1010.5
20260507181049 52 241 1.7 9.6 0.00 0.00 0.00 60 1010.6
20260507180849 52 204 2.6 9.6 0.00 0.00 0.00 59 1010.6
20260507180648 52 171 3.5 9.6 0.00 0.00 0.00 58 1010.5
20260507180448 52 236 3.5 8.7 0.00 0.00 0.00 59 1010.5
20260507180248 52 213 3.5 9.6 0.00 0.00 0.00 59 1010.5
20260507180047 52 179 3.5 9.6 0.00 0.00 0.00 60 1010.6
20260507175847 52 196 1.7 9.6 0.00 0.00 0.00 60 1010.6
20260507175647 52 115 1.7 9.6 0.00 0.00 0.00 62 1010.5
20260507175446 52 197 0.9 9.6 0.00 0.00 0.00 65 1010.5
20260507175246 51 259 1.7 5.2 0.00 0.00 0.00 68 1010.5
20260507175046 51 177 0.9 5.2 0.00 0.00 0.00 69 1010.6
20260507174845 50 178 0.9 3.5 0.00 0.00 0.00 74 1010.7
20260507174645 50 345 0.9 3.5 0.00 0.00 0.00 76 1010.7
20260507174445 50 322 0.0 2.6 0.00 0.00 0.00 75 1010.7
20260507174245 49 16 0.9 2.6 0.00 0.00 0.00 76 1010.7
20260507174044 49 34 0.9 8.7 0.00 0.00 0.00 76 1010.7
20260507173844 49 39 0.9 9.6 0.00 0.00 0.00 76 1010.7
20260507173644 49 321 0.9 9.6 0.00 0.00 0.00 75 1010.7
20260507173443 50 5 1.7 9.6 0.00 0.00 0.00 74 1010.8
20260507173243 50 49 3.5 9.6 0.00 0.00 0.00 72 1010.9
20260507173043 50 18 3.5 9.6 0.00 0.00 0.00 69 1010.9
20260507172843 51 18 4.3 7.0 0.00 0.00 0.00 66 1010.8
20260507172642 52 107 3.5 7.0 0.00 0.00 0.00 64 1010.7
20260507172442 52 203 1.7 7.8 0.00 0.00 0.00 62 1010.7
20260507172242 52 215 1.7 8.7 0.00 0.00 0.00 61 1010.7
20260507172041 52 182 0.9 8.7 0.00 0.00 0.00 60 1010.6
20260507171841 52 237 0.9 8.7 0.00 0.00 0.00 60 1010.6
20260507171641 52 210 1.7 8.7 0.00 0.00 0.00 60 1010.6
20260507171440 52 211 2.6 8.7 0.00 0.00 0.00 60 1010.7
20260507171240 52 220 2.6 9.6 0.00 0.00 0.00 61 1010.7
20260507171040 52 232 2.6 9.6 0.00 0.00 0.00 61 1010.7
20260507170840 52 198 3.5 9.6 0.00 0.00 0.00 60 1010.7
20260507170639 52 184 3.5 9.6 0.00 0.00 0.00 60 1010.6
20260507170439 52 229 2.6 9.6 0.00 0.00 0.00 60 1010.7
20260507170239 52 217 2.6 7.8 0.00 0.00 0.00 60 1010.7
20260507170038 53 263 1.7 7.8 0.00 0.00 0.00 60 1010.7
20260507165838 53 232 1.7 5.2 0.00 0.00 0.00 60 1010.8
20260507165638 53 200 1.7 5.2 0.00 0.00 0.00 59 1010.8
20260507165437 53 177 1.7 5.2 0.00 0.00 0.00 58 1010.8
20260507165237 53 224 1.7 5.2 0.00 0.00 0.00 58 1010.9
20260507165037 53 227 2.6 5.2 0.00 0.00 0.00 57 1010.9
20260507164836 53 207 0.9 5.2 0.00 0.00 0.00 59 1010.9
20260507164636 53 216 1.7 4.3 0.00 0.00 0.00 60 1010.9
20260507164436 53 236 1.7 4.3 0.00 0.00 0.00 59 1010.9
20260507164236 53 273 0.9 3.5 0.00 0.00 0.00 57 1010.9
20260507164035 53 86 0.9 3.5 0.00 0.00 0.00 57 1011.0
20260507163835 53 123 1.7 3.5 0.00 0.00 0.00 56 1011.0
20260507163635 53 106 0.9 3.5 0.00 0.00 0.00 55 1011.1
20260507163434 53 61 0.9 3.5 0.00 0.00 0.00 54 1011.0
20260507163234 53 165 1.7 3.5 0.00 0.00 0.00 57 1011.0
20260507163034 53 163 0.9 3.5 0.00 0.00 0.00 57 1011.0
20260507162834 53 143 0.9 3.5 0.00 0.00 0.00 57 1011.0
20260507162633 54 171 0.9 3.5 0.00 0.00 0.00 58 1011.0
20260507162433 54 58 0.9 10.4 0.00 0.00 0.00 60 1011.1
20260507162233 54 214 0.9 11.3 0.00 0.00 0.00 58 1011.1
20260507162032 54 227 0.9 11.3 0.00 0.00 0.00 58 1011.1
20260507161832 54 212 1.7 11.3 0.00 0.00 0.00 58 1011.1
20260507161632 54 170 3.5 11.3 0.00 0.00 0.00 58 1011.1
20260507161431 54 221 1.7 11.3 0.00 0.00 0.00 58 1011.1
20260507161231 54 200 0.9 4.3 0.00 0.00 0.00 57 1011.1
20260507161031 55 217 0.9 4.3 0.00 0.00 0.00 57 1011.1
20260507160830 54 25 0.0 3.5 0.00 0.00 0.00 57 1011.1
20260507160630 54 25 0.9 3.5 0.00 0.00 0.00 56 1011.2
20260507160430 55 72 0.9 3.5 0.00 0.00 0.00 55 1011.2
20260507160230 55 165 0.9 3.5 0.00 0.00 0.00 56 1011.2
20260507160029 55 210 1.7 6.1 0.00 0.00 0.00 55 1011.2
20260507155829 55 257 0.9 6.1 0.00 0.00 0.00 57 1011.2
20260507155629 54 234 0.0 6.1 0.00 0.00 0.00 60 1011.2
20260507155428 54 216 1.7 6.1 0.00 0.00 0.00 57 1011.2
20260507155228 54 210 2.6 6.1 0.00 0.00 0.00 57 1011.3
20260507155028 54 205 1.7 5.2 0.00 0.00 0.00 56 1011.2
20260507154827 54 188 1.7 4.3 0.00 0.00 0.00 56 1011.3
20260507154627 54 152 1.7 4.3 0.00 0.00 0.00 55 1011.2
20260507154427 54 333 1.7 4.3 0.00 0.00 0.00 54 1011.3
20260507154227 55 324 1.7 4.3 0.00 0.00 0.00 55 1011.3
20260507154026 55 232 0.9 4.3 0.00 0.00 0.00 54 1011.3
20260507153826 56 191 0.9 6.1 0.00 0.00 0.00 54 1011.3
20260507153802 56 234 0.0 7.0 0.00 0.00 0.00 54 1011.3
20260507153626 56 234 0.0 7.0 0.00 0.00 0.00 54 1011.3
20260507153425 56 235 0.0 7.0 0.00 0.00 0.00 54 1011.3
20260507153330 55 66 1.7 7.0 0.00 0.00 0.00 56 1011.3
20260507153225 55 170 0.9 7.0 0.00 0.00 0.00 55 1011.3
20260507153101 55 27 1.7 7.0 0.00 0.00 0.00 56 1011.2
20260507153025 55 66 1.7 7.0 0.00 0.00 0.00 56 1011.3
20260507152832 55 118 0.0 3.5 0.00 0.00 0.00 55 1011.3
20260507152824 55 27 1.7 7.0 0.00 0.00 0.00 56 1011.2
20260507152624 55 38 1.7 6.1 0.00 0.00 0.00 56 1011.4
20260507152424 55 84 1.7 6.1 0.00 0.00 0.00 56 1011.4
20260507152224 55 118 0.0 3.5 0.00 0.00 0.00 55 1011.3
20260507152023 55 72 0.9 3.5 0.00 0.00 0.00 55 1011.3
20260507151923 55 44 0.9 3.5 0.00 0.00 0.00 57 1011.3
20260507151823 55 44 0.9 3.5 0.00 0.00 0.00 57 1011.3
20260507151623 55 53 0.9 3.5 0.00 0.00 0.00 60 1011.4
20260507151422 54 9 0.0 3.5 0.00 0.00 0.00 60 1011.3
20260507151222 54 0 0.0 2.6 0.00 0.00 0.00 56 1011.3
20260507151022 53 178 0.0 2.6 0.00 0.00 0.00 58 1011.3
20260507150821 53 27 0.9 2.6 0.00 0.00 0.00 57 1011.3
20260507150621 52 46 0.0 2.6 0.00 0.00 0.00 60 1011.4
20260507150421 52 72 0.0 2.6 0.00 0.00 0.00 60 1011.4
20260507150221 52 72 0.9 3.5 0.00 0.00 0.00 63 1011.5
20260507150020 52 52 0.9 4.3 0.00 0.00 0.00 63 1011.4
20260507145820 52 22 0.9 4.3 0.00 0.00 0.00 63 1011.4
20260507145620 52 19 1.7 5.2 0.00 0.00 0.00 64 1011.5
20260507145419 52 31 1.7 5.2 0.00 0.00 0.00 64 1011.5
20260507145219 52 80 0.9 5.2 0.00 0.00 0.00 63 1011.5
20260507145019 53 139 0.9 5.2 0.00 0.00 0.00 62 1011.5
20260507144818 53 77 0.9 3.5 0.00 0.00 0.00 63 1011.5
20260507144618 53 61 0.0 3.5 0.00 0.00 0.00 63 1011.4
20260507144418 53 59 0.0 3.5 0.00 0.00 0.00 63 1011.5
20260507144218 53 43 0.0 3.5 0.00 0.00 0.00 64 1011.5
20260507144017 53 255 0.9 3.5 0.00 0.00 0.00 64 1011.5
20260507143817 53 254 0.9 3.5 0.00 0.00 0.00 64 1011.4
20260507143617 52 216 0.0 2.6 0.00 0.00 0.00 66 1011.5
20260507143416 52 214 0.9 5.2 0.00 0.00 0.00 65 1011.5
20260507143216 52 241 0.9 5.2 0.00 0.00 0.00 65 1011.5
20260507143016 52 55 0.0 5.2 0.00 0.00 0.00 65 1011.5
20260507142815 52 42 0.9 5.2 0.00 0.00 0.00 63 1011.6
20260507142615 52 19 1.7 7.8 0.00 0.00 0.00 64 1011.5
20260507142415 52 42 1.7 7.8 0.00 0.00 0.00 63 1011.6
20260507142215 52 51 0.9 7.8 0.00 0.00 0.00 64 1011.5
20260507142014 52 46 0.9 7.8 0.00 0.00 0.00 64 1011.5
20260507141814 52 43 2.6 7.8 0.00 0.00 0.00 63 1011.5
20260507141614 52 52 0.9 3.5 0.00 0.00 0.00 65 1011.5
20260507141413 52 144 0.9 3.5 0.00 0.00 0.00 63 1011.6
20260507141213 52 197 0.9 1.7 0.00 0.00 0.00 64 1011.6
20260507141013 52 118 0.0 6.1 0.00 0.00 0.00 64 1011.7
20260507140812 51 21 0.0 7.0 0.00 0.00 0.00 65 1011.7
20260507140612 51 17 0.9 7.8 0.00 0.00 0.00 66 1011.7
20260507140412 51 27 1.7 7.8 0.00 0.00 0.00 66 1011.7
20260507140211 51 40 2.6 7.8 0.00 0.00 0.00 65 1011.7
20260507140011 51 37 2.6 7.8 0.00 0.00 0.00 64 1011.8
20260507135811 51 359 0.9 5.2 0.00 0.00 0.00 65 1011.8
20260507135611 51 360 1.7 5.2 0.00 0.00 0.00 64 1011.8
20260507135410 51 25 2.6 6.1 0.00 0.00 0.00 65 1011.8
20260507135210 51 33 1.7 6.1 0.00 0.00 0.00 65 1011.8
20260507135010 51 13 1.7 6.1 0.00 0.00 0.00 66 1011.8
20260507134809 51 6 2.6 6.1 0.00 0.00 0.00 65 1011.8
20260507134609 51 29 3.5 6.1 0.00 0.00 0.00 65 1011.8
20260507134409 51 24 1.7 6.1 0.00 0.00 0.00 65 1011.8
20260507134208 51 50 1.7 6.1 0.00 0.00 0.00 65 1011.7
20260507134008 51 52 1.7 6.1 0.00 0.00 0.00 65 1011.9
20260507133808 51 49 1.7 5.2 0.00 0.00 0.00 64 1011.8
20260507133608 52 46 1.7 5.2 0.00 0.00 0.00 64 1011.9
20260507133407 52 51 1.7 4.3 0.00 0.00 0.00 63 1011.9
20260507133207 53 52 0.9 3.5 0.00 0.00 0.00 64 1011.9
20260507133007 53 52 0.9 2.6 0.00 0.00 0.00 65 1011.9
20260507132806 53 52 0.0 2.6 0.00 0.00 0.00 65 1011.9
20260507132606 52 23 0.9 2.6 0.00 0.00 0.00 65 1011.9
20260507132406 52 12 0.9 2.6 0.00 0.00 0.00 65 1011.9
20260507132206 52 17 0.9 2.6 0.00 0.00 0.00 65 1011.9
20260507132005 52 26 0.9 3.5 0.00 0.00 0.00 65 1011.9
20260507131805 52 27 0.0 3.5 0.00 0.00 0.00 64 1011.9
20260507131605 52 28 0.0 3.5 0.00 0.00 0.00 65 1012.0
20260507131404 51 359 0.9 3.5 0.00 0.00 0.00 65 1012.0
20260507131204 51 0 0.0 3.5 0.00 0.00 0.00 66 1012.0
20260507131004 51 266 0.0 2.6 0.00 0.00 0.00 66 1011.9
20260507130803 51 255 0.0 2.6 0.00 0.00 0.00 66 1011.9
20260507130603 51 253 0.9 2.6 0.00 0.00 0.00 66 1011.9
20260507130403 51 253 0.9 2.6 0.00 0.00 0.00 64 1012.0
20260507130203 52 253 0.0 2.6 0.00 0.00 0.00 64 1012.1
20260507130002 52 253 0.0 2.6 0.00 0.00 0.00 66 1012.0
20260507125802 51 253 0.0 2.6 0.00 0.00 0.00 68 1012.0
20260507125602 50 241 0.0 2.6 0.00 0.00 0.00 69 1012.0
20260507125401 50 231 0.0 2.6 0.00 0.00 0.00 69 1012.0
20260507125201 49 236 0.0 1.7 0.00 0.00 0.00 70 1012.0
20260507125001 49 240 0.0 1.7 0.00 0.00 0.00 72 1012.0
20260507124800 49 0 0.0 1.7 0.00 0.00 0.00 72 1012.1
20260507124600 48 240 0.0 1.7 0.00 0.00 0.00 73 1012.0
20260507124400 48 240 0.0 1.7 0.00 0.00 0.00 74 1012.1
20260507124200 47 0 0.0 1.7 0.00 0.00 0.00 76 1012.1
20260507123959 46 240 0.0 1.7 0.00 0.00 0.00 76 1012.0
20260507123759 46 240 0.0 1.7 0.00 0.00 0.00 76 1012.0
20260507123559 46 240 0.0 2.6 0.00 0.00 0.00 76 1012.0
20260507123358 45 240 0.0 3.5 0.00 0.00 0.00 76 1012.0
20260507123158 45 238 0.0 3.5 0.00 0.00 0.00 77 1012.0
20260507122958 44 234 0.9 3.5 0.00 0.00 0.00 78 1012.1
20260507122757 44 217 0.9 3.5 0.00 0.00 0.00 78 1012.0
20260507122557 44 25 0.0 3.5 0.00 0.00 0.00 79 1012.0
20260507122357 44 316 0.9 2.6 0.00 0.00 0.00 79 1012.0
20260507122156 43 214 0.0 2.6 0.00 0.00 0.00 80 1012.0
20260507121956 43 214 0.0 1.7 0.00 0.00 0.00 80 1012.0
20260507121757 42 214 0.0 2.6 0.00 0.00 0.00 81 1012.0
20260507121556 42 214 0.0 3.5 0.00 0.00 0.00 82 1012.0
20260507121355 42 214 0.9 3.5 0.00 0.00 0.00 82 1012.1
20260507121155 41 215 0.9 3.5 0.00 0.00 0.00 82 1012.1
20260507120955 41 217 0.9 3.5 0.00 0.00 0.00 81 1012.1
20260507120754 41 232 0.9 3.5 0.00 0.00 0.00 82 1012.1
20260507120554 41 228 1.7 3.5 0.00 0.00 0.00 82 1012.1
20260507120354 41 220 0.9 3.5 0.00 0.00 0.00 82 1012.0
20260507120153 41 234 0.9 2.6 0.00 0.00 0.00 82 1012.0
20260507115953 41 243 0.0 2.6 0.00 0.01 0.00 83 1012.0
20260507115753 40 243 0.0 2.6 0.00 0.01 0.00 83 1012.0
20260507115553 40 243 0.0 2.6 0.00 0.01 0.00 83 1011.9
20260507115352 40 243 0.0 2.6 0.00 0.01 0.00 83 1011.9
20260507115152 40 243 0.9 2.6 0.00 0.01 0.00 83 1011.9
20260507114952 40 243 0.9 2.6 0.00 0.01 0.00 84 1011.9
20260507114751 40 243 0.9 2.6 0.00 0.01 0.00 84 1011.9
20260507114551 40 243 0.0 2.6 0.00 0.01 0.00 84 1011.9
20260507114351 40 243 0.0 2.6 0.00 0.01 0.00 84 1011.9
20260507114150 40 230 0.9 2.6 0.00 0.01 0.00 84 1012.0
20260507113950 39 244 0.9 2.6 0.00 0.01 0.00 85 1011.9
20260507113750 39 253 0.0 2.6 0.00 0.01 0.00 85 1011.8
20260507113550 39 251 0.0 2.6 0.00 0.01 0.00 85 1011.9
20260507113349 39 251 0.0 3.5 0.00 0.01 0.00 85 1011.9
20260507113149 39 251 0.0 3.5 0.00 0.01 0.00 86 1011.9
20260507112949 39 236 0.0 3.5 0.00 0.01 0.00 86 1012.0
20260507112748 38 233 0.9 3.5 0.00 0.01 0.00 86 1011.9
20260507112548 38 237 0.9 3.5 0.00 0.01 0.00 86 1011.9
20260507112348 38 236 0.0 1.7 0.00 0.01 0.00 86 1011.9
20260507112147 38 236 0.0 1.7 0.00 0.01 0.00 86 1011.8
20260507111947 38 236 0.0 1.7 0.00 0.01 0.00 86 1011.9
20260507111747 38 236 0.0 1.7 0.00 0.01 0.00 87 1011.8
20260507111547 38 236 0.0 1.7 0.00 0.01 0.00 87 1011.7
20260507111346 38 236 0.0 1.7 0.00 0.01 0.00 87 1011.8
20260507111146 38 236 0.0 1.7 0.00 0.01 0.00 87 1011.8
20260507110946 38 234 0.0 1.7 0.00 0.01 0.00 87 1011.8
20260507110745 38 237 0.9 1.7 0.00 0.01 0.00 87 1011.8
20260507110545 38 242 0.0 2.6 0.00 0.01 0.00 87 1011.8
20260507110345 38 242 0.0 2.6 0.00 0.01 0.00 87 1011.7
20260507110144 38 0 0.0 2.6 0.00 0.01 0.00 87 1011.8
20260507105944 38 241 0.0 2.6 0.00 0.01 0.00 87 1011.8
20260507105744 38 241 0.9 2.6 0.00 0.01 0.00 87 1011.7
20260507105543 38 241 0.9 2.6 0.00 0.01 0.00 86 1011.7
20260507105343 38 241 0.0 2.6 0.00 0.01 0.00 86 1011.7
20260507105143 38 241 0.0 1.7 0.00 0.01 0.00 86 1011.6
20260507104943 38 241 0.0 1.7 0.00 0.01 0.00 86 1011.6
20260507104742 38 240 0.0 1.7 0.00 0.01 0.00 86 1011.7
20260507104542 38 228 0.0 1.7 0.00 0.01 0.00 86 1011.6
20260507104342 38 208 0.0 1.7 0.00 0.01 0.00 86 1011.6
20260507104141 38 213 0.0 1.7 0.00 0.01 0.00 86 1011.6
20260507103941 38 258 0.0 1.7 0.00 0.01 0.00 86 1011.5
20260507103741 38 258 0.0 1.7 0.00 0.01 0.00 86 1011.5
20260507103540 38 258 0.0 1.7 0.00 0.01 0.00 86 1011.4
20260507103340 38 258 0.0 1.7 0.00 0.01 0.00 86 1011.4
20260507103140 38 259 0.0 1.7 0.00 0.01 0.00 86 1011.4
20260507102940 38 265 0.0 1.7 0.00 0.01 0.00 86 1011.4
20260507102739 38 265 0.0 1.7 0.00 0.01 0.00 86 1011.4
20260507102539 38 0 0.0 1.7 0.00 0.01 0.00 85 1011.5
20260507102339 38 0 0.0 1.7 0.00 0.01 0.00 85 1011.6
20260507102138 38 265 0.0 1.7 0.00 0.01 0.00 85 1011.6
20260507101938 38 0 0.0 1.7 0.00 0.01 0.00 85 1011.5
20260507101738 38 264 0.0 1.7 0.00 0.01 0.00 85 1011.6
20260507101538 38 263 0.0 1.7 0.00 0.01 0.00 85 1011.7
20260507101337 38 257 0.0 1.7 0.00 0.01 0.00 85 1011.7
20260507101137 38 225 0.0 1.7 0.00 0.01 0.00 85 1011.7
20260507100937 39 225 0.0 2.6 0.00 0.01 0.00 85 1011.8
20260507100736 39 225 0.0 2.6 0.00 0.01 0.00 84 1011.7
20260507100536 39 225 0.0 2.6 0.00 0.01 0.00 84 1011.9
20260507100336 39 225 0.9 2.6 0.00 0.01 0.00 84 1011.9
20260507100135 39 225 0.0 2.6 0.00 0.01 0.00 84 1011.9
20260507095935 39 225 0.0 2.6 0.00 0.03 0.00 84 1012.0
20260507095735 39 0 0.0 2.6 0.00 0.03 0.00 83 1012.2
20260507095534 39 225 0.0 2.6 0.00 0.03 0.00 83 1012.3
20260507095334 39 221 0.0 2.6 0.00 0.03 0.00 83 1012.3
20260507095134 39 289 0.0 1.7 0.00 0.03 0.00 82 1012.4
20260507094934 39 302 0.0 3.5 0.00 0.03 0.00 82 1012.3
20260507094733 39 67 0.0 4.3 0.00 0.03 0.00 82 1012.2
20260507094533 39 59 0.0 4.3 0.00 0.03 0.00 82 1012.3
20260507094333 39 29 0.0 4.3 0.00 0.03 0.00 82 1012.3
20260507094132 39 360 0.9 4.3 0.00 0.03 0.00 82 1012.2
20260507093932 39 338 0.9 3.5 0.00 0.03 0.00 81 1012.3
20260507093732 39 4 0.9 3.5 0.00 0.03 0.00 81 1012.2
20260507093531 39 350 0.9 3.5 0.00 0.03 0.00 81 1012.2
20260507093331 39 350 0.9 3.5 0.00 0.03 0.00 81 1012.2
20260507093131 39 4 0.9 3.5 0.00 0.03 0.00 81 1012.2
20260507092931 39 22 0.0 3.5 0.00 0.03 0.00 80 1012.2
20260507092730 39 48 0.9 3.5 0.00 0.03 0.00 80 1012.2
20260507092530 39 360 0.9 3.5 0.00 0.03 0.00 80 1012.2
20260507092330 39 8 0.9 2.6 0.00 0.03 0.00 80 1012.3
20260507092129 39 306 0.0 2.6 0.00 0.03 0.00 80 1012.2
20260507091929 39 313 0.0 2.6 0.00 0.03 0.00 79 1012.2
20260507091729 39 295 0.0 2.6 0.00 0.03 0.00 79 1012.2
20260507091528 39 336 0.9 3.5 0.00 0.03 0.00 79 1012.2
20260507091328 39 347 0.9 3.5 0.00 0.03 0.00 79 1012.3
20260507091128 39 16 0.0 5.2 0.00 0.03 0.00 79 1012.2
20260507090928 39 23 0.9 7.8 0.00 0.03 0.00 79 1012.2
20260507090727 39 32 0.9 7.8 0.00 0.03 0.00 80 1012.1
20260507090527 39 33 0.9 7.8 0.00 0.03 0.00 80 1012.2
20260507090327 39 29 2.6 7.8 0.00 0.03 0.00 80 1012.3
20260507090126 39 18 1.7 7.8 0.00 0.03 0.00 80 1012.2
20260507085926 39 16 1.7 7.8 0.00 0.05 0.00 81 1012.2
20260507085726 39 31 2.6 7.8 0.00 0.05 0.00 81 1012.2
20260507085525 39 33 1.7 5.2 0.00 0.05 0.00 82 1012.0
20260507085325 39 1 0.9 2.6 0.00 0.05 0.00 82 1011.9
20260507085125 39 246 0.0 1.7 0.00 0.05 0.00 82 1012.0
20260507084925 38 220 0.0 1.7 0.00 0.05 0.00 82 1012.0
20260507084724 38 220 0.0 1.7 0.00 0.05 0.00 83 1012.0
20260507084524 38 220 0.0 1.7 0.00 0.05 0.00 83 1012.1
20260507084324 38 0 0.0 1.7 0.00 0.05 0.00 83 1012.0
20260507084123 38 220 0.0 1.7 0.00 0.05 0.00 83 1012.1
20260507083923 38 220 0.0 1.7 0.00 0.05 0.00 84 1012.1
20260507083723 38 220 0.0 1.7 0.00 0.05 0.00 84 1012.1
20260507083522 38 0 0.0 0.0 0.00 0.05 0.00 84 1012.1
20260507083322 38 0 0.0 0.0 0.00 0.05 0.00 84 1012.1
20260507083122 38 0 0.0 0.0 0.00 0.05 0.00 84 1012.1
20260507082922 38 0 0.0 0.0 0.00 0.05 0.00 83 1012.1
20260507082721 38 0 0.0 0.0 0.00 0.05 0.00 83 1012.0
20260507082521 38 0 0.0 0.0 0.00 0.05 0.00 83 1011.9
20260507082321 38 0 0.0 0.0 0.00 0.05 0.00 83 1011.9
20260507082120 38 0 0.0 0.9 0.00 0.05 0.00 83 1012.0
20260507081920 38 0 0.0 0.9 0.00 0.05 0.00 84 1012.0
20260507081720 38 0 0.0 0.9 0.00 0.05 0.00 84 1012.0
20260507081519 38 220 0.0 0.9 0.00 0.05 0.00 85 1012.1
20260507081319 38 220 0.0 0.9 0.00 0.05 0.00 85 1012.0
20260507081119 38 0 0.0 0.0 0.00 0.05 0.00 85 1012.0
20260507080919 38 0 0.0 0.0 0.00 0.05 0.00 85 1012.0
20260507080718 38 0 0.0 0.0 0.00 0.05 0.00 85 1012.0
20260507080518 38 0 0.0 0.0 0.00 0.05 0.00 85 1012.0
20260507080318 38 0 0.0 0.0 0.00 0.05 0.00 85 1012.1
20260507080117 38 0 0.0 0.0 0.00 0.05 0.00 85 1012.1
20260507075917 38 0 0.0 0.0 0.00 0.08 0.00 85 1012.0
20260507075717 38 0 0.0 0.0 0.00 0.08 0.00 85 1012.0
20260507075516 38 0 0.0 0.0 0.00 0.08 0.00 85 1012.0
20260507075316 38 0 0.0 0.0 0.00 0.08 0.00 85 1011.9
20260507075116 38 0 0.0 1.7 0.00 0.08 0.00 84 1011.9
20260507074915 38 0 0.0 1.7 0.00 0.08 0.00 84 1011.9
20260507074715 38 0 0.0 1.7 0.00 0.08 0.00 84 1011.8
20260507074515 38 0 0.0 1.7 0.00 0.08 0.00 84 1011.7
20260507074315 38 220 0.0 1.7 0.00 0.08 0.00 85 1011.6
20260507074114 38 220 0.0 1.7 0.00 0.08 0.00 85 1011.6
20260507073914 38 220 0.0 1.7 0.00 0.08 0.00 85 1011.6
20260507073714 38 220 0.0 1.7 0.00 0.08 0.00 85 1011.6
20260507073513 38 220 0.0 1.7 0.00 0.08 0.00 86 1011.6
20260507073313 38 220 0.0 1.7 0.00 0.08 0.00 86 1011.7
20260507073113 38 220 0.0 1.7 0.00 0.08 0.00 87 1011.7
20260507072913 38 220 0.9 1.7 0.00 0.08 0.00 88 1011.7
20260507072712 37 220 0.0 1.7 0.00 0.08 0.00 88 1011.7
20260507072512 37 0 0.0 0.0 0.00 0.08 0.00 88 1011.8
20260507072312 37 0 0.0 0.0 0.00 0.08 0.00 88 1012.0
20260507072111 37 0 0.0 0.0 0.00 0.08 0.00 88 1012.0
20260507071911 37 0 0.0 0.0 0.00 0.08 0.00 89 1012.0
20260507071711 37 0 0.0 0.0 0.00 0.08 0.00 89 1012.1
20260507071510 37 0 0.0 0.0 0.00 0.08 0.00 90 1012.0
20260507071310 37 0 0.0 0.0 0.00 0.08 0.00 90 1012.0
20260507071110 37 0 0.0 0.0 0.00 0.08 0.00 90 1012.1
20260507070910 37 0 0.0 0.0 0.00 0.08 0.00 90 1012.0
20260507070709 37 0 0.0 0.0 0.00 0.08 0.00 90 1012.1
20260507070509 37 0 0.0 0.0 0.00 0.08 0.00 89 1012.0
20260507070309 37 0 0.0 0.0 0.00 0.08 0.00 89 1012.0
20260507070108 37 0 0.0 0.0 0.00 0.08 0.00 89 1012.0
20260507065908 37 0 0.0 0.0 0.00 0.13 0.00 89 1012.0
20260507065708 37 0 0.0 0.0 0.00 0.13 0.00 89 1012.0
20260507065507 38 0 0.0 0.0 0.00 0.13 0.00 89 1012.0
20260507065307 38 0 0.0 0.0 0.00 0.13 0.00 88 1011.9
20260507065107 38 0 0.0 0.0 0.00 0.13 0.00 88 1012.0
20260507064907 38 0 0.0 0.0 0.00 0.13 0.00 88 1011.9
20260507064706 38 0 0.0 0.0 0.00 0.13 0.00 87 1011.9
20260507064506 38 0 0.0 0.0 0.00 0.13 0.00 87 1011.9
20260507064306 38 0 0.0 0.0 0.00 0.13 0.00 86 1011.9
20260507064105 38 0 0.0 0.9 0.00 0.13 0.00 86 1011.9
20260507063905 38 0 0.0 0.9 0.00 0.13 0.00 87 1011.9
20260507063705 38 220 0.0 0.9 0.00 0.13 0.00 88 1011.9
20260507063504 38 220 0.0 0.9 0.00 0.13 0.00 88 1011.9
20260507063304 39 0 0.0 0.0 0.00 0.13 0.00 88 1011.9
20260507063104 39 0 0.0 0.0 0.00 0.13 0.00 88 1012.0
20260507062903 39 0 0.0 0.0 0.00 0.13 0.00 87 1012.0
20260507062703 39 0 0.0 0.0 0.00 0.13 0.00 87 1011.9
20260507062503 39 0 0.0 0.0 0.00 0.13 0.00 87 1012.0
20260507062305 39 0 0.0 0.0 0.00 0.13 0.00 87 1012.0
20260507062102 39 0 0.0 0.0 0.00 0.13 0.00 87 1012.1
20260507061902 39 0 0.0 0.0 0.00 0.13 0.00 88 1012.1
20260507061702 39 0 0.0 0.0 0.00 0.13 0.00 87 1012.0
20260507061502 39 0 0.0 0.0 0.00 0.13 0.00 87 1012.0
20260507061301 39 0 0.0 0.9 0.00 0.13 0.00 87 1012.1
20260507061101 40 0 0.0 1.7 0.00 0.13 0.00 87 1012.0
20260507060900 40 220 0.0 1.7 0.00 0.13 0.00 87 1012.0
20260507060700 40 220 0.0 1.7 0.00 0.13 0.00 87 1012.0
20260507060500 40 220 0.9 1.7 0.00 0.13 0.00 87 1012.0
20260507060300 40 220 0.0 1.7 0.00 0.13 0.00 86 1012.0
20260507060059 40 0 0.0 0.0 0.00 0.13 0.00 86 1012.0
20260507055859 40 0 0.0 0.0 0.00 0.20 0.00 85 1011.9
20260507055659 40 0 0.0 0.0 0.00 0.20 0.00 85 1011.9
20260507055458 40 0 0.0 0.0 0.00 0.20 0.00 85 1011.9
20260507055258 40 0 0.0 0.0 0.00 0.20 0.00 84 1011.9
20260507055058 40 0 0.0 0.0 0.00 0.20 0.00 84 1012.0
20260507054857 41 0 0.0 0.0 0.00 0.20 0.00 84 1012.0
20260507054657 41 0 0.0 1.7 0.00 0.20 0.00 84 1012.1
20260507054457 41 0 0.0 1.7 0.00 0.20 0.00 84 1012.1
20260507054257 41 0 0.0 1.7 0.00 0.20 0.00 84 1012.1
20260507054056 41 220 0.0 1.7 0.00 0.20 0.00 84 1012.2
20260507053856 41 220 0.0 1.7 0.00 0.20 0.00 84 1012.2
20260507053656 41 220 0.0 1.7 0.00 0.20 0.00 84 1012.3
20260507053455 41 222 0.9 1.7 0.00 0.20 0.00 84 1012.3
20260507053255 41 224 0.0 1.7 0.00 0.20 0.00 84 1012.3
20260507053055 41 0 0.0 1.7 0.00 0.20 0.00 84 1012.2
20260507052854 41 0 0.0 0.0 0.00 0.20 0.00 84 1012.3
20260507052654 41 0 0.0 0.0 0.00 0.20 0.00 83 1012.3
20260507052454 41 0 0.0 0.0 0.00 0.20 0.00 83 1012.4
20260507052254 41 0 0.0 0.0 0.00 0.20 0.00 83 1012.3
20260507052053 41 0 0.0 0.0 0.00 0.20 0.00 83 1012.3
20260507051853 41 0 0.0 0.0 0.00 0.20 0.00 82 1012.3
20260507051653 41 0 0.0 0.0 0.00 0.20 0.00 82 1012.3
20260507051452 41 0 0.0 0.0 0.00 0.20 0.00 82 1012.2
20260507051252 41 0 0.0 0.0 0.00 0.20 0.00 82 1012.2
20260507051052 41 0 0.0 0.0 0.00 0.20 0.00 82 1012.2
20260507050852 41 0 0.0 0.0 0.00 0.20 0.00 82 1012.2
20260507050651 41 0 0.0 0.0 0.00 0.20 0.00 82 1012.3
20260507050451 41 0 0.0 0.0 0.00 0.20 0.00 82 1012.3
20260507050250 41 0 0.0 0.0 0.00 0.20 0.00 82 1012.3
20260507050050 41 0 0.0 0.0 0.00 0.20 0.00 82 1012.4
20260507045850 41 0 0.0 0.9 0.00 0.23 0.00 82 1012.4
20260507045650 41 0 0.0 0.9 0.00 0.23 0.00 82 1012.4
20260507045449 41 0 0.0 0.9 0.00 0.23 0.00 82 1012.3
20260507045249 41 220 0.0 0.9 0.00 0.23 0.00 82 1012.3
20260507045049 41 220 0.0 0.9 0.00 0.23 0.00 82 1012.3
20260507044848 41 220 0.0 0.9 0.00 0.23 0.00 82 1012.3
20260507044648 41 220 0.0 0.9 0.00 0.23 0.00 82 1012.3
20260507044448 41 0 0.0 0.0 0.00 0.23 0.00 82 1012.3
20260507044248 41 0 0.0 0.0 0.00 0.23 0.00 82 1012.3
20260507044047 41 0 0.0 0.0 0.00 0.23 0.00 81 1012.4
20260507043847 41 0 0.0 0.0 0.00 0.23 0.00 81 1012.4
20260507043647 41 0 0.0 0.0 0.00 0.23 0.00 81 1012.5
20260507043446 41 0 0.0 0.0 0.00 0.23 0.00 81 1012.5
20260507043246 41 0 0.0 0.0 0.00 0.23 0.00 81 1012.5
20260507043046 41 0 0.0 0.0 0.00 0.23 0.00 81 1012.5
20260507042845 41 0 0.0 0.0 0.00 0.23 0.00 81 1012.4
20260507042645 41 0 0.0 0.0 0.00 0.23 0.00 81 1012.5
20260507042445 41 0 0.0 0.0 0.00 0.23 0.00 81 1012.5
20260507042245 41 0 0.0 0.0 0.00 0.23 0.00 81 1012.3
20260507042044 41 0 0.0 0.0 0.00 0.23 0.00 81 1012.3
20260507041844 41 0 0.0 0.0 0.00 0.23 0.00 81 1012.3
20260507041644 41 0 0.0 0.9 0.00 0.23 0.00 81 1012.3
20260507041443 41 0 0.0 1.7 0.00 0.23 0.00 81 1012.3
20260507041243 41 0 0.0 1.7 0.00 0.23 0.00 81 1012.3
20260507041043 41 0 0.0 1.7 0.00 0.23 0.00 80 1012.3
20260507040842 41 220 0.0 1.7 0.00 0.23 0.00 81 1012.3
20260507040642 40 203 0.0 1.7 0.00 0.23 0.00 81 1012.5
20260507040442 40 148 0.0 1.7 0.00 0.23 0.00 82 1012.6
20260507040241 40 139 0.0 1.7 0.00 0.23 0.00 82 1012.6
20260507040041 40 120 0.0 1.7 0.00 0.23 0.00 83 1012.6
20260507035841 39 112 0.0 1.7 0.00 0.23 0.23 84 1012.5
20260507035641 39 112 0.0 1.7 0.00 0.23 0.23 84 1012.5
20260507035440 39 0 0.0 0.0 0.00 0.23 0.23 84 1012.5
20260507035240 39 0 0.0 0.0 0.00 0.23 0.23 84 1012.5
20260507035040 39 0 0.0 0.0 0.00 0.23 0.23 84 1012.6
20260507034839 39 0 0.0 0.0 0.00 0.23 0.23 84 1012.6
20260507034639 39 0 0.0 0.0 0.00 0.23 0.23 84 1012.6
20260507034439 39 0 0.0 0.0 0.00 0.23 0.23 84 1012.6
20260507034239 39 0 0.0 0.0 0.00 0.23 0.23 84 1012.6
20260507034038 39 0 0.0 0.0 0.00 0.23 0.23 84 1012.6
20260507033838 39 0 0.0 0.0 0.00 0.23 0.23 84 1012.5
20260507033638 39 0 0.0 0.0 0.00 0.23 0.23 84 1012.5
20260507033437 39 0 0.0 0.0 0.00 0.23 0.23 85 1012.6
20260507033237 38 0 0.0 0.0 0.00 0.23 0.23 85 1012.7
20260507033037 38 0 0.0 0.0 0.00 0.23 0.23 85 1012.5
20260507032836 38 0 0.0 0.0 0.00 0.23 0.23 84 1012.5
20260507032636 38 0 0.0 0.0 0.00 0.23 0.23 84 1012.5
20260507032436 38 0 0.0 0.0 0.00 0.23 0.23 84 1012.5
20260507032235 38 0 0.0 0.0 0.00 0.23 0.23 84 1012.6
20260507032035 38 0 0.0 0.0 0.00 0.23 0.23 84 1012.6
20260507031835 38 0 0.0 0.0 0.00 0.23 0.23 83 1012.6
20260507031635 38 0 0.0 0.0 0.00 0.23 0.23 83 1012.6
20260507031434 39 0 0.0 0.0 0.00 0.23 0.23 83 1012.6
20260507031234 39 0 0.0 0.0 0.00 0.23 0.23 83 1012.6
20260507031034 39 0 0.0 0.0 0.00 0.23 0.23 83 1012.7
20260507030833 39 0 0.0 0.0 0.00 0.23 0.23 83 1012.7
20260507030633 39 0 0.0 0.0 0.00 0.23 0.23 83 1012.7
20260507030433 39 0 0.0 0.0 0.00 0.23 0.23 83 1012.7
20260507030232 39 0 0.0 0.0 0.00 0.23 0.23 83 1012.7
20260507030032 39 0 0.0 0.0 0.00 0.23 0.23 82 1012.7
20260507025832 39 0 0.0 0.0 0.00 0.24 0.23 82 1012.7
20260507025632 39 0 0.0 0.0 0.00 0.24 0.23 82 1012.7
20260507025431 39 0 0.0 0.0 0.00 0.24 0.23 82 1012.7
20260507025231 39 0 0.0 0.0 0.00 0.24 0.23 81 1012.6
20260507025031 39 0 0.0 0.0 0.00 0.24 0.23 81 1012.6
20260507024830 39 0 0.0 0.0 0.00 0.24 0.23 81 1012.6
20260507024630 39 0 0.0 0.0 0.00 0.24 0.23 81 1012.5
20260507024430 39 0 0.0 0.0 0.00 0.24 0.23 80 1012.5
20260507024229 39 0 0.0 0.0 0.00 0.24 0.23 79 1012.4
20260507024030 39 0 0.0 0.0 0.00 0.24 0.23 78 1012.5
20260507023829 40 0 0.0 0.0 0.00 0.24 0.23 78 1012.5
20260507023629 40 0 0.0 0.0 0.00 0.24 0.23 78 1012.4
20260507023428 40 0 0.0 0.0 0.00 0.24 0.23 77 1012.4
20260507023228 40 0 0.0 0.0 0.00 0.24 0.23 77 1012.3
20260507023028 40 0 0.0 0.0 0.00 0.24 0.23 77 1012.4
20260507022827 40 0 0.0 0.0 0.00 0.24 0.23 76 1012.4
20260507022627 40 0 0.0 0.0 0.00 0.24 0.23 76 1012.3
20260507022427 40 0 0.0 0.0 0.00 0.24 0.23 76 1012.3
20260507022226 40 0 0.0 0.0 0.00 0.24 0.23 76 1012.3
20260507022026 40 0 0.0 0.0 0.00 0.24 0.23 75 1012.3
20260507021826 40 0 0.0 0.0 0.00 0.24 0.23 75 1012.3
20260507021626 40 0 0.0 0.0 0.00 0.24 0.23 75 1012.2
20260507021425 40 0 0.0 0.0 0.00 0.24 0.23 75 1012.2
20260507021225 40 0 0.0 0.0 0.00 0.24 0.23 74 1012.2
20260507021025 40 0 0.0 0.0 0.00 0.24 0.23 74 1012.3
20260507020824 41 0 0.0 0.0 0.00 0.24 0.23 73 1012.3
20260507020624 41 0 0.0 0.0 0.00 0.24 0.23 72 1012.3
20260507020424 41 0 0.0 0.0 0.00 0.24 0.23 72 1012.3
20260507020223 41 0 0.0 0.0 0.00 0.24 0.23 72 1012.3
20260507020023 42 0 0.0 0.0 0.00 0.24 0.23 71 1012.3
20260507015823 42 0 0.0 0.0 0.00 0.25 0.23 71 1012.3
20260507015623 42 0 0.0 0.0 0.00 0.25 0.23 71 1012.5
20260507015422 42 0 0.0 0.0 0.00 0.25 0.23 71 1012.5
20260507015222 42 0 0.0 0.0 0.00 0.25 0.23 70 1012.5
20260507015022 42 0 0.0 0.0 0.00 0.25 0.23 70 1012.5
20260507014821 43 0 0.0 0.0 0.00 0.25 0.23 69 1012.5
20260507014621 43 0 0.0 0.0 0.00 0.25 0.23 68 1012.5
20260507014421 43 0 0.0 0.0 0.00 0.25 0.23 68 1012.6
20260507014220 43 0 0.0 0.0 0.00 0.25 0.23 67 1012.6
20260507014020 43 0 0.0 0.0 0.00 0.25 0.23 67 1012.6
20260507013820 44 0 0.0 0.9 0.00 0.25 0.23 66 1012.7
20260507013620 44 0 0.0 1.7 0.00 0.25 0.23 66 1012.7
20260507013419 44 0 0.0 1.7 0.00 0.25 0.23 66 1012.7
20260507013219 44 0 0.0 1.7 0.00 0.25 0.23 66 1012.8
20260507013019 44 112 0.0 1.7 0.00 0.25 0.23 66 1012.8
20260507012818 44 112 0.0 1.7 0.00 0.25 0.23 65 1012.8
20260507012618 44 0 0.0 0.0 0.00 0.25 0.23 64 1012.8
20260507012418 44 0 0.0 1.7 0.00 0.25 0.23 64 1012.8
20260507012217 45 0 0.0 1.7 0.00 0.25 0.23 64 1012.7
20260507012017 45 0 0.0 1.7 0.00 0.25 0.23 64 1012.7
20260507011817 45 112 0.0 1.7 0.00 0.25 0.23 64 1012.6
20260507011616 45 112 0.0 1.7 0.00 0.25 0.23 63 1012.6
20260507011416 45 0 0.0 1.7 0.00 0.25 0.23 63 1012.5
20260507011216 45 112 0.0 1.7 0.00 0.25 0.23 63 1012.5
20260507011016 45 112 0.0 0.9 0.00 0.25 0.23 62 1012.5
20260507010815 45 0 0.0 1.7 0.00 0.25 0.23 62 1012.5
20260507010615 45 0 0.0 1.7 0.00 0.25 0.23 62 1012.5
20260507010415 45 0 0.0 1.7 0.00 0.25 0.23 62 1012.4
20260507010214 45 112 0.0 1.7 0.00 0.25 0.23 61 1012.3
20260507010014 46 112 0.0 1.7 0.00 0.25 0.23 61 1012.4
20260507005814 46 112 0.0 1.7 0.00 0.27 0.23 61 1012.4
20260507005613 46 112 0.0 1.7 0.00 0.27 0.23 60 1012.3
20260507005413 46 0 0.0 1.7 0.00 0.27 0.23 60 1012.3
20260507005213 46 112 0.0 2.6 0.00 0.27 0.23 59 1012.3
20260507005013 46 112 0.0 2.6 0.00 0.27 0.23 59 1012.2
20260507004812 46 112 0.0 2.6 0.00 0.27 0.23 59 1012.2
20260507004612 46 112 0.0 2.6 0.00 0.27 0.23 59 1012.3
20260507004412 46 112 0.0 2.6 0.00 0.27 0.23 58 1012.3
20260507004211 46 33 0.9 2.6 0.00 0.27 0.23 58 1012.2
20260507004011 46 17 0.0 1.7 0.00 0.27 0.23 58 1012.2
20260507003811 46 15 0.0 1.7 0.00 0.27 0.23 58 1012.2
20260507003611 46 25 0.0 2.6 0.00 0.27 0.23 58 1012.2
20260507003410 47 89 0.0 3.5 0.00 0.27 0.23 58 1012.1
20260507003210 47 51 0.0 3.5 0.00 0.27 0.23 57 1012.1
20260507003010 47 44 0.0 5.2 0.00 0.27 0.23 57 1012.1
20260507002809 47 36 0.9 5.2 0.00 0.27 0.23 57 1012.1
20260507002609 47 340 0.0 5.2 0.00 0.27 0.23 57 1012.0
20260507002409 47 358 0.9 5.2 0.00 0.27 0.23 57 1011.9
20260507002208 47 62 0.9 5.2 0.00 0.27 0.23 57 1011.9
20260507002008 47 87 0.9 5.2 0.00 0.27 0.23 57 1011.9
20260507001808 47 17 0.9 5.2 0.00 0.27 0.23 57 1011.8
20260507001607 47 136 0.9 6.1 0.00 0.27 0.23 56 1011.8
20260507001407 48 107 0.9 6.1 0.00 0.27 0.23 57 1011.9
20260507001207 48 104 1.7 6.1 0.00 0.27 0.23 56 1011.8
20260507001007 48 35 1.7 6.1 0.00 0.27 0.23 56 1011.8
20260507000806 48 31 1.7 6.1 0.00 0.27 0.23 56 1011.8
20260507000606 48 348 0.9 4.3 0.00 0.27 0.23 57 1011.8
20260507000406 48 51 0.9 4.3 0.00 0.27 0.23 57 1011.8
20260507000205 48 67 0.9 4.3 0.00 0.27 0.23 57 1011.8
20260507000005 48 23 0.9 4.3 0.00 0.27 0.23 57 1011.8
20260506235805 48 20 0.9 6.1 0.00 0.27 0.23 57 1011.8
20260506235604 48 31 0.9 6.1 0.00 0.27 0.23 57 1011.8
20260506235404 48 55 1.7 6.1 0.00 0.27 0.23 56 1011.8
20260506235204 48 59 1.7 7.8 0.00 0.27 0.23 56 1011.7
20260506235004 48 315 0.9 7.8 0.00 0.27 0.23 56 1011.7
20260506234803 48 41 0.9 7.8 0.00 0.27 0.23 57 1011.7
20260506234603 49 40 1.7 7.8 0.00 0.27 0.23 56 1011.7
20260506234403 49 48 1.7 7.8 0.00 0.27 0.23 56 1011.6
20260506234202 49 5 1.7 6.1 0.00 0.27 0.23 56 1011.7
20260506234002 49 27 1.7 6.1 0.00 0.27 0.23 57 1011.7
20260506233802 49 60 1.7 6.1 0.00 0.27 0.23 57 1011.7
20260506233601 49 105 0.9 4.3 0.00 0.27 0.23 57 1011.6
20260506233401 49 206 0.9 7.0 0.00 0.27 0.23 57 1011.6
20260506233201 49 353 1.7 7.0 0.00 0.27 0.23 57 1011.5
20260506233001 49 29 1.7 7.0 0.00 0.27 0.23 56 1011.5
20260506232800 49 69 2.6 7.0 0.00 0.27 0.23 56 1011.5
20260506232600 49 82 1.7 7.0 0.00 0.27 0.23 55 1011.5
20260506232400 50 68 1.7 6.1 0.00 0.27 0.23 56 1011.5
20260506232159 50 73 2.6 6.1 0.00 0.27 0.23 55 1011.5
20260506231959 50 14 1.7 6.1 0.00 0.27 0.23 55 1011.5
20260506231759 50 3 1.7 6.1 0.00 0.27 0.23 55 1011.5
20260506231558 50 52 1.7 6.1 0.00 0.27 0.23 55 1011.5
20260506231358 50 93 1.7 6.1 0.00 0.27 0.23 55 1011.4
20260506231158 51 149 0.9 5.2 0.00 0.27 0.23 56 1011.5
20260506230958 51 68 0.9 5.2 0.00 0.27 0.23 56 1011.4
20260506230757 51 60 0.9 5.2 0.00 0.27 0.23 57 1011.4
20260506230557 51 62 1.7 7.0 0.00 0.27 0.23 57 1011.3
20260506230357 51 32 1.7 7.0 0.00 0.27 0.23 57 1011.4
20260506230156 51 70 2.6 7.0 0.00 0.27 0.23 57 1011.4
20260506225956 50 327 3.5 7.0 0.00 0.29 0.23 58 1011.4
20260506225756 50 211 2.6 7.0 0.00 0.29 0.23 57 1011.4
20260506225555 50 81 1.7 6.1 0.00 0.29 0.23 58 1011.4
20260506225355 50 159 2.6 5.2 0.00 0.29 0.23 58 1011.4
20260506225155 50 179 1.7 5.2 0.00 0.29 0.23 61 1011.3
20260506224955 50 37 0.9 4.3 0.00 0.29 0.23 68 1011.4
20260506224754 50 34 0.0 2.6 0.00 0.29 0.23 68 1011.4
20260506224554 50 34 0.0 3.5 0.00 0.29 0.23 68 1011.4
20260506224354 50 19 0.9 3.5 0.00 0.29 0.23 68 1011.4
20260506224153 50 6 0.9 3.5 0.00 0.29 0.23 69 1011.4
20260506223953 50 8 0.0 3.5 0.00 0.29 0.23 69 1011.3
20260506223753 50 34 1.7 3.5 0.00 0.29 0.23 68 1011.3
20260506223552 50 35 0.9 3.5 0.00 0.29 0.23 68 1011.3
20260506223352 50 31 0.9 3.5 0.00 0.29 0.23 69 1011.2
20260506223152 50 31 0.0 3.5 0.00 0.29 0.23 69 1011.1
20260506222952 49 46 0.9 3.5 0.00 0.29 0.23 69 1011.2
20260506222751 49 81 0.0 3.5 0.00 0.29 0.23 70 1011.1
20260506222551 49 81 0.0 3.5 0.00 0.29 0.23 69 1011.0
20260506222351 49 78 0.9 3.5 0.00 0.29 0.23 69 1011.1
20260506222150 50 60 0.9 4.3 0.00 0.29 0.23 68 1011.1
20260506221950 50 52 0.0 4.3 0.00 0.29 0.23 68 1011.0
20260506221750 50 52 0.9 4.3 0.00 0.29 0.23 69 1011.0